User: anonymous   Login
Location: Asheville, NC
(35.6000°N, 82.5500°W)
Time: 23:05:06
(UTC-04:00)
Language:

TIGRISAT - Orbit

View from above orbital plane
View from above orbital plane
View from above satellite
View from above satellite

Ground track
Ground track

The orbit data is extracted from the following two-line orbital elements,

1 40043U 14033AK  18113.59729176 +.00000172 +00000-0 +33037-4 0  9992
2 40043 097.8165 352.8853 0060591 016.1821 344.1304 14.74123008206268
Epoch (UTC): 23 April 2018 14:20:06
Eccentricity: 0.0060591
inclination: 97.8165°
perigee height: 605 km
apogee height: 690 km
right ascension of ascending node: 352.8853°
argument of perigee: 16.1821°
revolutions per day: 14.74123008
mean anomaly at epoch: 344.1304°
orbit number at epoch: 20626

The dashed part of the orbit path shows where the satellite is in the earth's shadow,  

DLR